Regional Weather Roundup
Issued by NWS

Home | Current Version | Previous Version | Text Only | Print | Product List | Glossary Off
Versions: 1 2 3 4 5 6 7 8 9 10 11 12 13 14 15 16 17 18 19 20 21 22 23 24 25 26 27 28

000
ASUS45 KBOI 292310
RWRID

IDAHO REGIONAL WEATHER ROUNDUP
NATIONAL WEATHER SERVICE BOISE ID
500 PM MDT SAT APR 29 2017

NOTE: "FAIR" INDICATES FEW OR NO CLOUDS BELOW 12000 FEET
WITH NO SIGNIFICANT WEATHER AND/OR OBSTRUCTIONS TO VISIBILITY

IDZ012-014-300000-
SOUTHWEST IDAHO


CITY           SKY/WX    TMP DP  RH WIND       PRES   REMARKS
BOISE          PTSUNNY   60  23  24 VRB6      30.18F
CALDWELL       PTSUNNY   62  32  32 NE3       30.18F
MOUNTAIN HOME  MOSUNNY   61  30  30 NW10G18   30.17F
$$

IDZ016-017-300000-
SOUTHCENTRAL IDAHO


CITY           SKY/WX    TMP DP  RH WIND       PRES   REMARKS
BURLEY         SUNNY     57  23  26 W10G18    30.17F
JEROME         SUNNY     57  25  29 SW12G18   30.20F
TWIN FALLS     SUNNY     58  26  29 W13G18    30.19F
$$

IDZ019>023-300000-
SOUTHEAST IDAHO


CITY           SKY/WX    TMP DP  RH WIND       PRES   REMARKS
IDAHO FALLS    MOSUNNY   55  23  28 CALM      30.17F
POCATELLO      MOSUNNY   56  27  32 VRB3      30.18F
REXBURG        SUNNY     52  23  32 S8        30.16F
$$

IDZ006-010-011-018-031-032-300000-
CENTRAL IDAHO MOUNTAINS


CITY           SKY/WX    TMP DP  RH WIND       PRES   REMARKS
MCCALL         PTSUNNY   52  12  20 SW12G21   30.16F
HAILEY         MOSUNNY   54  30  40 SE12      30.17F
STANLEY          N/A     49  12  22 VRB5      30.17F
SALMON         SUNNY     57  27  30 N6        30.07F
CHALLIS        MOSUNNY   60  10  14 W7        30.09F
$$

IDZ002-004-006-007-026-300000-
NORTHERN IDAHO


CITY           SKY/WX    TMP DP  RH WIND       PRES   REMARKS
LEWISTON       PTSUNNY   66  38  35 N9        30.11F
LOWELL           N/A     65  38  36 S3        30.12F
COEUR D`ALENE  CLOUDY    60  36  40 SW14      30.12F
MULLAN PASS    CLOUDY    39  27  62 VRB6      30.14F WCI  35
$$




USA.gov is the U.S. government's official web portal to all federal, state and local government web resources and services.